This is the latest recevied weather packets stored in our database for station/object W5CRT. If no packets are shown the sender has not sent any weather packets the latest 1 day(s).
| Time | Temp. | Humidity | Pressure | Rain* | Wind** | Luminosity | Snow |
|---|---|---|---|---|---|---|---|
| 1777981968 | 21.67° C | 82% | 1002.4 hPa | 0 mm | 0.89 m/s, 138° | 10 W/m² | - |
| 1777981666 | 21.67° C | 82% | 1002.4 hPa | 0 mm | 3.13 m/s, 178° | 5 W/m² | - |
| 1777981361 | 21.67° C | 82% | 1001.8 hPa | 0 mm | 1.34 m/s, 182° | 3 W/m² | - |
| 1777981058 | 21.67° C | 82% | 1002.2 hPa | 0 mm | 1.79 m/s, 206° | 2 W/m² | - |
| 1777980755 | 21.67° C | 82% | 1002.2 hPa | 0 mm | 1.79 m/s, 196° | 1 W/m² | - |
| 1777980451 | 21.67° C | 82% | 1002 hPa | 0 mm | 1.34 m/s, 168° | 0 W/m² | - |
| 1777980149 | 21.67° C | 82% | 1002.3 hPa | 0 mm | 1.79 m/s, 212° | 0 W/m² | - |
| 1777979849 | 21.67° C | 82% | 1002.1 hPa | 0 mm | 1.34 m/s, 148° | 0 W/m² | - |
| 1777979545 | 21.67° C | 82% | 1002.1 hPa | 0 mm | 0.89 m/s, 140° | 0 W/m² | - |
| 1777979241 | 21.67° C | 82% | 1001.7 hPa | 0 mm | 2.24 m/s, 168° | 0 W/m² | - |
| 1777978939 | 21.67° C | 82% | 1001.7 hPa | 0 mm | 1.34 m/s, 161° | 0 W/m² | - |
| 1777978635 | 21.67° C | 82% | 1002 hPa | 0 mm | 2.24 m/s, 164° | 0 W/m² | - |
| 1777978330 | 21.67° C | 82% | 1002 hPa | 0 mm | 2.24 m/s, 144° | 0 W/m² | - |
| 1777978028 | 21.67° C | 82% | 1001.8 hPa | 0 mm | 3.58 m/s, 214° | 0 W/m² | - |
| 1777977725 | 21.67° C | 82% | 1002 hPa | 0 mm | 2.68 m/s, 155° | 0 W/m² | - |
| 1777977421 | 21.67° C | 81% | 1002.2 hPa | 0 mm | 1.79 m/s, 167° | 0 W/m² | - |
| 1777977119 | 21.67° C | 81% | 1002.1 hPa | 0 mm | 2.24 m/s, 110° | 0 W/m² | - |
| 1777976816 | 21.67° C | 81% | 1002.1 hPa | 0 mm | 4.02 m/s, 165° | 0 W/m² | - |
| 1777976514 | 21.67° C | 82% | 1002.3 hPa | 0 mm | 1.34 m/s, 163° | 0 W/m² | - |
| 1777976213 | 21.67° C | 81% | 1002 hPa | 0 mm | 2.68 m/s, 186° | 0 W/m² | - |
| 1777975909 | 21.67° C | 81% | 1002.1 hPa | 0 mm | 1.34 m/s, 169° | 0 W/m² | - |
| 1777975605 | 21.67° C | 82% | 1002.3 hPa | 0 mm | 1.34 m/s, 79° | 0 W/m² | - |
| 1777975302 | 21.67° C | 82% | 1002.2 hPa | 0 mm | 1.79 m/s, 152° | 0 W/m² | - |
| 1777974998 | 21.67° C | 82% | 1002.5 hPa | 0 mm | 2.68 m/s, 191° | 0 W/m² | - |
| 1777974695 | 21.67° C | 82% | 1002.6 hPa | 0 mm | 1.79 m/s, 159° | 0 W/m² | - |
* Rain latest hour (hover to see other rain measurements)
** Current wind speed in m/s (hover to see current wind gust speed)